When you browse on this site, cookies collect data to enhance your experience and personalize the content and advertising you see.
Visit our Privacy Policy to learn more. By continuing to use the site, you agree to this use of cookies and data.
  • En España
  • Lista de países
  • Para 7 días
  • Temperatura del agua
  • El tiempo en el mapa
  • Informadores
  • user-avatar
    Iniciar sesión

    Tiempo cada hora Fier

    Hoy, 19 Octubre, Sábado

    Tiempo Temperatura Precipitaciones Viento Presión Humedad
    00:00 +18°C° 0 mm 0 mps 762 mmHg 78%
    01:00 +20°C° 0 mm 1 mps 762 mmHg 79%
    02:00 +19°C° 0 mm 1 mps 762 mmHg 79%
    03:00 +19°C° 0 mm 1 mps 762 mmHg 79%
    04:00 +19°C° 0 mm 1 mps 762 mmHg 79%
    05:00 +19°C° 0 mm 1 mps 762 mmHg 77%
    06:00 +20°C° 0 mm 1 mps 762 mmHg 75%
    07:00 +20°C° 0 mm 1 mps 762 mmHg 73%
    08:00 +22°C° 0 mm 1 mps 762 mmHg 65%
    09:00 +24°C° 0 mm 1 mps 762 mmHg 58%
    10:00 +23°C° 0 mm 0 mps 763 mmHg 51%
    11:00 +26°C° 0 mm 1 mps 762 mmHg 50%
    12:00 +26°C° 0 mm 2 mps 762 mmHg 49%
    13:00 +27°C° 0 mm 3 mps 762 mmHg 48%
    14:00 +26°C° 0 mm 3 mps 762 mmHg 52%
    15:00 +25°C° 0 mm 3 mps 762 mmHg 55%
    16:00 +24°C° 0 mm 2 mps 762 mmHg 59%
    17:00 +23°C° 0 mm 2 mps 762 mmHg 64%
    18:00 +22°C° 0 mm 1 mps 762 mmHg 69%
    19:00 +21°C° 0 mm 1 mps 762 mmHg 75%
    20:00 +21°C° 0 mm 1 mps 763 mmHg 75%
    21:00 +20°C° 0 mm 1 mps 763 mmHg 76%
    22:00 +20°C° 0 mm 1 mps 763 mmHg 77%
    23:00 +20°C° 0 mm 1 mps 763 mmHg 77%

    Mañana, 20 Octubre, Domingo

    Tiempo Temperatura Precipitaciones Viento Presión Humedad
    00:00 +20°C° 0 mm 1 mps 763 mmHg 77%
    01:00 +19°C° 0 mm 1 mps 763 mmHg 78%
    02:00 +19°C° 0 mm 1 mps 763 mmHg 78%
    03:00 +19°C° 0 mm 1 mps 763 mmHg 78%
    04:00 +19°C° 0 mm 1 mps 763 mmHg 78%
    05:00 +19°C° 0 mm 1 mps 763 mmHg 76%
    06:00 +20°C° 0 mm 1 mps 763 mmHg 74%
    07:00 +20°C° 0 mm 1 mps 763 mmHg 72%
    08:00 +22°C° 0 mm 1 mps 764 mmHg 65%
    09:00 +24°C° 0 mm 1 mps 764 mmHg 58%
    10:00 +23°C° 0 mm 0 mps 764 mmHg 51%
    11:00 +26°C° 0 mm 1 mps 764 mmHg 49%
    12:00 +27°C° 0 mm 2 mps 763 mmHg 47%
    13:00 +27°C° 0 mm 2 mps 763 mmHg 45%
    14:00 +26°C° 0 mm 2 mps 763 mmHg 48%
    15:00 +26°C° 0 mm 2 mps 763 mmHg 52%
    16:00 +25°C° 0 mm 2 mps 763 mmHg 55%
    17:00 +23°C° 0 mm 1 mps 763 mmHg 60%
    18:00 +22°C° 0 mm 1 mps 764 mmHg 65%
    19:00 +19°C° 0 mm 0 mps 764 mmHg 70%
    20:00 +21°C° 0 mm 1 mps 764 mmHg 71%
    21:00 +21°C° 0 mm 1 mps 764 mmHg 71%
    22:00 +20°C° 0 mm 1 mps 764 mmHg 71%
    23:00 +20°C° 0 mm 1 mps 764 mmHg 72%

    Pasado mañana, 21 Octubre, Lunes

    Tiempo Temperatura Precipitaciones Viento Presión Humedad
    00:00 +20°C° 0 mm 1 mps 764 mmHg 72%
    01:00 +20°C° 0 mm 1 mps 764 mmHg 72%
    02:00 +20°C° 0 mm 1 mps 764 mmHg 73%
    03:00 +19°C° 0 mm 1 mps 764 mmHg 73%
    04:00 +19°C° 0 mm 1 mps 764 mmHg 74%
    05:00 +20°C° 0 mm 1 mps 764 mmHg 72%
    06:00 +20°C° 0 mm 1 mps 764 mmHg 70%
    07:00 +20°C° 0 mm 1 mps 764 mmHg 69%
    08:00 +22°C° 0 mm 1 mps 764 mmHg 62%
    09:00 +24°C° 0 mm 1 mps 764 mmHg 55%
    10:00 +26°C° 0 mm 1 mps 764 mmHg 49%
    11:00 +27°C° 0 mm 2 mps 764 mmHg 47%
    12:00 +27°C° 0 mm 2 mps 764 mmHg 46%
    13:00 +28°C° 0 mm 3 mps 764 mmHg 45%
    14:00 +27°C° 0 mm 3 mps 763 mmHg 47%
    15:00 +26°C° 0 mm 3 mps 763 mmHg 50%
    16:00 +25°C° 0 mm 3 mps 763 mmHg 52%
    17:00 +24°C° 0 mm 2 mps 763 mmHg 56%
    18:00 +23°C° 0 mm 2 mps 763 mmHg 59%
    19:00 +21°C° 0 mm 1 mps 763 mmHg 63%
    20:00 +21°C° 0 mm 1 mps 763 mmHg 63%
    21:00 +21°C° 0 mm 1 mps 763 mmHg 62%
    22:00 +21°C° 0 mm 1 mps 763 mmHg 61%
    23:00 +21°C° 0 mm 1 mps 763 mmHg 62%

    22 Octubre, Martes

    Tiempo Temperatura Precipitaciones Viento Presión Humedad
    00:00 +20°C° 0 mm 1 mps 763 mmHg 62%
    01:00 +20°C° 0 mm 1 mps 763 mmHg 63%
    02:00 +20°C° 0 mm 1 mps 763 mmHg 63%
    03:00 +20°C° 0 mm 1 mps 763 mmHg 64%
    04:00 +20°C° 0 mm 1 mps 763 mmHg 65%
    05:00 +19°C° 0 mm 2 mps 763 mmHg 63%
    06:00 +19°C° 0 mm 2 mps 763 mmHg 61%
    07:00 +20°C° 0 mm 2 mps 763 mmHg 60%
    08:00 +23°C° 0 mm 2 mps 763 mmHg 52%
    09:00 +25°C° 0 mm 1 mps 763 mmHg 45%
    10:00 +27°C° 0 mm 1 mps 763 mmHg 38%
    11:00 +28°C° 0 mm 2 mps 763 mmHg 37%
    12:00 +28°C° 0 mm 3 mps 763 mmHg 36%
    13:00 +29°C° 0 mm 4 mps 762 mmHg 36%
    14:00 +28°C° 0 mm 3 mps 762 mmHg 40%
    15:00 +27°C° 0 mm 3 mps 762 mmHg 44%
    16:00 +25°C° 0 mm 3 mps 762 mmHg 49%
    17:00 +24°C° 0 mm 2 mps 762 mmHg 53%
    18:00 +23°C° 0 mm 2 mps 762 mmHg 57%
    19:00 +22°C° 0 mm 1 mps 763 mmHg 61%
    20:00 +21°C° 0 mm 1 mps 763 mmHg 60%
    21:00 +21°C° 0 mm 1 mps 763 mmHg 59%
    22:00 +21°C° 0 mm 1 mps 763 mmHg 58%
    23:00 +21°C° 0 mm 1 mps 763 mmHg 56%

    23 Octubre, Miércoles

    Tiempo Temperatura Precipitaciones Viento Presión Humedad
    00:00 +21°C° 0 mm 1 mps 763 mmHg 54%
    01:00 +21°C° 0 mm 1 mps 763 mmHg 52%
    02:00 +20°C° 0 mm 1 mps 763 mmHg 51%
    03:00 +20°C° 0 mm 1 mps 763 mmHg 50%
    04:00 +20°C° 0 mm 1 mps 763 mmHg 49%
    05:00 +19°C° 0 mm 2 mps 763 mmHg 48%
    06:00 +19°C° 0 mm 2 mps 763 mmHg 47%
    07:00 +20°C° 0 mm 2 mps 763 mmHg 46%
    08:00 +23°C° 0 mm 1 mps 763 mmHg 41%
    09:00 +26°C° 0 mm 1 mps 763 mmHg 35%
    10:00 +26°C° 0 mm 0 mps 763 mmHg 30%
    11:00 +29°C° 0 mm 1 mps 763 mmHg 29%
    12:00 +29°C° 0 mm 2 mps 762 mmHg 29%
    13:00 +30°C° 0 mm 2 mps 762 mmHg 28%
    14:00 +29°C° 0 mm 2 mps 762 mmHg 33%
    15:00 +27°C° 0 mm 2 mps 762 mmHg 39%
    16:00 +26°C° 0 mm 2 mps 762 mmHg 44%
    17:00 +25°C° 0 mm 1 mps 762 mmHg 47%
    18:00 +23°C° 0 mm 1 mps 762 mmHg 51%
    19:00 +22°C° 0 mm 1 mps 762 mmHg 55%
    20:00 +22°C° 0 mm 1 mps 762 mmHg 53%
    21:00 +22°C° 0 mm 1 mps 763 mmHg 52%
    22:00 +21°C° 0 mm 1 mps 763 mmHg 50%
    23:00 +20°C° 0 mm 2 mps 763 mmHg 48%

    24 Octubre, Jueves

    Tiempo Temperatura Precipitaciones Viento Presión Humedad
    00:00 +20°C° 0 mm 2 mps 763 mmHg 46%
    01:00 +20°C° 0 mm 2 mps 763 mmHg 44%
    02:00 +19°C° 0 mm 2 mps 762 mmHg 44%
    03:00 +19°C° 0 mm 2 mps 762 mmHg 43%
    04:00 +19°C° 0 mm 2 mps 762 mmHg 43%
    05:00 +19°C° 0 mm 2 mps 762 mmHg 42%
    06:00 +19°C° 0 mm 2 mps 762 mmHg 42%
    07:00 +19°C° 0 mm 2 mps 762 mmHg 41%
    08:00 +23°C° 0 mm 2 mps 762 mmHg 37%
    09:00 +25°C° 0 mm 1 mps 762 mmHg 33%
    10:00 +28°C° 0 mm 1 mps 762 mmHg 29%
    11:00 +28°C° 0 mm 2 mps 762 mmHg 29%
    12:00 +29°C° 0 mm 2 mps 762 mmHg 30%
    13:00 +29°C° 0 mm 3 mps 762 mmHg 30%
    14:00 +28°C° 0 mm 3 mps 761 mmHg 36%
    15:00 +27°C° 0 mm 2 mps 761 mmHg 41%
    16:00 +26°C° 0 mm 2 mps 761 mmHg 47%
    17:00 +24°C° 0 mm 1 mps 761 mmHg 52%
    18:00 +23°C° 0 mm 1 mps 762 mmHg 57%
    19:00 +21°C° 0 mm 1 mps 762 mmHg 62%
    20:00 +21°C° 0 mm 1 mps 762 mmHg 60%
    21:00 +21°C° 0 mm 1 mps 762 mmHg 59%
    22:00 +21°C° 0 mm 1 mps 763 mmHg 57%
    23:00 +20°C° 0 mm 1 mps 762 mmHg 56%
    Mostrar más